Regional Weather Roundup
Issued by NWS Charleston, SC

Current Version | Previous Version | Graphics & Text | Print | Product List | Glossary On
Versions: 1 2 3 4 5 6 7 8 9 10 11 12 13 14 15 16 17 18 19 20 21 22 23 24 25 26 27 28 29 30 31 32 33 34 35 36 37 38 39 40 41 42 43 44 45 46 47 48 49 50
000 ASUS42 KCHS 211727 RWRCHS REGIONAL WEATHER ROUNDUP NATIONAL WEATHER SERVICE CHARLESTON SC 100 PM EDT MON AUG 21 2017 NOTE: "FAIR" INDICATES FEW OR NO CLOUDS BELOW 12,000 FEET WITH NO SIGNIFICANT WEATHER AND/OR OBSTRUCTIONS TO VISIBILITY. NOT ALL STATIONS ARE QUALITY CONTROLLED. USE DATA WITH CAUTION... ESPECIALLY DEWPOINT OBSERVATIONS. SCZ027-030-031-034>040-042>050-211800- ...SOUTHEAST SOUTH CAROLINA... CITY SKY/WX TMP DP RH WIND PRES REMARKS N CHARLESTON CLOUDY 89 76 65 SE9 30.16F HX 100 WATERFRONT PRK N/A 88 79 74 E7 30.03F HX 103 JOHNS ISLAND N/A 86 79 79 E7 30.16F HX 99 PINOPOLIS N/A 86 79 79 N5 30.11F HX 99 MONCKS CORNER LGT RAIN 82 79 89 NE8 30.16F HX 93 SUMMERVILLE CLOUDY 88 75 66 NE3 30.17F HX 97 BEAUFORT MCAS TSTM 81 79 94 CALM 30.17F FOG HX 90 BEAUFORT ARPT PTSUNNY 79 72 78 W8 30.17S THUNDER HILTON HEAD IS PTSUNNY 90 79 70 NE12 30.18F HX 105 WALTERBORO MOSUNNY 90 75 62 E12 30.17F HX 100 ALLENDALE NOT AVBL ...SOUTHERN MIDLANDS AND PEE DEE... CITY SKY/WX TMP DP RH WIND PRES REMARKS GEORGETOWN FAIR 88 79 74 E7 30.19R THUNDER HX 102 KINGSTREE PTSUNNY 90 73 58 E5 30.17S HX 98 ORANGEBURG PTSUNNY 89 73 59 E9 30.18F HX 97 BARNWELL FAIR 90 77 66 CALM 30.18F HX 102 AIKEN FAIR 90 70 51 E8 30.23F HX 95 MANNING FAIR 90 77 66 E14 30.16F HX 102 COLUMBIA MOSUNNY 93 72 50 SE7 30.18F HX 101 SUMTER DRIZZLE 90 72 55 NE9 30.15F HX 96 FLORENCE PTSUNNY 91 74 57 E9 30.18F HX 100 MYRTLE BEACH PTSUNNY 84 75 74 E13 30.20F HX 92 N MYRTLE BEACH CLOUDY 86 76 71 E12 30.18F HX 96 $$ GAZ063-065-086>088-099>101-113>116-118-119-134>141-150-211800- ...SOUTHEAST GEORGIA... CITY SKY/WX TMP DP RH WIND PRES REMARKS SAVANNAH ARPT TSTM 77 73 87 N16G30 30.18S FOG HUNTER AAF TSTM 88 75 66 E8 30.14F HX 97 FORT STEWART TSTM 81 73 78 SE3 30.16S STATESBORO CLOUDY 90 69 50 SE3 30.16F HX 94 SYLVANIA PTSUNNY 91 78 64 E6 30.17F HX 106 CLAXTON FAIR 89 76 66 NE12 30.16F HX 100 ...CSRA...CENTRAL AND FAR SOUTHEAST GEORGIA... CITY SKY/WX TMP DP RH WIND PRES REMARKS THOMSON MOSUNNY 89 72 55 S5 30.24F HX 96 AUGUSTA-BUSH MOSUNNY 93 76 57 CALM 30.17F HX 105 AUGUSTA-DANIEL CLOUDY 90 70 51 CALM 30.20S HX 95 SWAINSBORO PTSUNNY 90 72 55 E7 30.17F HX 96 VIDALIA MOSUNNY 95 72 46 E3 30.16F HX 103 EASTMAN FAIR 94 50 22 SE6 30.19F HX 91 HAZLEHURST FAIR 90 62 39 NE3 30.15F HX 90 ALMA PTSUNNY 89 73 59 VRB6 30.16F HX 97 WAYCROSS DRIZZLE 80 76 87 SE6 30.17F JESUP FAIR 81 72 74 CALM 30.19S BAXLEY LGT RAIN 79 72 78 SE7 30.16F BRUNSWICK HVY RAIN 73 72 94 NE9 30.20R SAINT SIMONS LGT RAIN 79 76 90 E3 30.20R $$ SCZ027-028-034-036>038-045-046-048>050-GAZ119-141-211800- ...LAKE AND SUPPLEMENTAL COASTAL OBSERVATIONS... STATION/POSITION TIME TEMP WIND PRES WAVE SWELL AIR SEA DIR/SP/G HT/PER HT/PER/DIR (UTC) (F) (DEG/KT/KT) (MB) (FT/S) (FT/S/D) WINYAH BAY 1645 84 80/ 7 1022.0S LAKE MURRAY 1720 89 190/ 5/ 6 1020.7 ACE BASIN NERRS 1645 85 50/ 1 1022.0S FORT PULASKI 1700 85 87 80/ 8/ 10 1022.1 SAPELO ISLAND 1700 75 CALM 1022.0 $$ ANZ835-935-AMZ111-154-330-350-352-354-370-450-454-472-211800- ...C-MAN AND BUOY OBSERVATIONS... STATION/POSITION TIME TEMP WIND PRES WAVE SWELL AIR SEA DIR/SP/G HT/PER HT/PER/DIR (UTC) (F) (DEG/KT/KT) (MB) (FT/S) (FT/S/D) BUOY 41004 1710 82 85 120/ 6/ 8 1021.4 BUOY 41008 1650 83 85 100/ 8/ 10 1021.6F 2/ 9 2/120/ 9 FOLLY BEACH CMAN 1700 85 90/ 9/ 10 1022.2F CAPERS NEARSHORE 1708 84 86 100/ 12/ 16 1021.5F FRIPP NEARSHORE 1708 84 110/ 8/ 12 1021.4F STATION/POSITION TIME TEMP WIND PRES WAVE SWELL AIR SEA DIR/SP/G HT/PER HT/PER/DIR (UTC) (F) (DEG/KT/KT) (MB) (FT/S) (FT/S/D) 5E ST. MARYS GA 1700 85 N/A 2/ 9 FRYING PAN BUOY 1710 83 84 100/ 8/ 10 1021.8 BUOY 41025 1650 83 85 120/ 12/ 14 1023.0F 2/ 8 2/ 90/ 8 CAPE LOOKOUT NC 1700 79 210/ 6/ 8 1022.8F BUOY 41002 1650 83 85 120/ 6/ 8 1022.8S 3/ 8 3/100/ 8 BUOY 41010 1710 85 85 100/ 10/ 12 1020.7 ST AUGUSTINE FL 1700 83 83 120/ 10/ 11 1021.2F $$

USA.gov is the U.S. government's official web portal to all federal, state and local government web resources and services.